RADIX

Last updated on April 8, 2020, 12:02 a.m. UTC

1 43550U 98067NY  20097.88977430  .06840374  12338-4  81014-3 0  9991
2 43550  51.6154 263.5421 0011233 295.6312  64.3552 16.35532541 99459

Satellite is not in orbit.